User: anonymous   Login
Location: Fishcreek Rd Observing Site
(41.1865°N, 81.4271°W)
Time: 16:47:44
(UTC-04:00)
Language:

Iridium 45 - Orbit

View from above orbital plane
View from above orbital plane
View from above satellite
View from above satellite

Ground track
Ground track

The orbit data is extracted from the following two-line orbital elements,

1 25104U 97082A   16178.24251136  .00000178  00000-0  56523-4 0  9996
2 25104  86.3967  76.0600 0003053  63.8939 296.2570 14.34214485969350
Epoch (UTC): 26 June 2016 05:49:12
Eccentricity: 0.0003053
inclination: 86.3967°
perigee height: 775 km
apogee height: 780 km
right ascension of ascending node: 76.0600°
argument of perigee: 63.8939°
revolutions per day: 14.34214485
mean anomaly at epoch: 296.2570°
orbit number at epoch: 96935

The dashed part of the orbit path shows where the satellite is in the earth's shadow,  

DLR